www.pogodaiklimat.ru

Погода и климат >> Архив погоды >> Россия >> Владимирская область >> Владимир


АРХИВ ПОГОДЫ в Владимире

Время (UTC), дата Ветер
(напр.,м/с)
 
Видим.   Явления Облачность Т
(С)
Тd
(С)
f
(%)
Тe
(С)
Тes
(С)
Комфортность P
(гПа)
Po
(гПа)
Тmin
(С)
Tmax
(С)
R
(мм)
R24
(мм)
S
(см)
15 17.04 С 1 10 км 8/0
[Ci fib]
+7.7 -13.5 21 +8 +9 по сезону 1031.9 1010.6 +9.3
18 17.04 штиль 0 10 км 8/0
[Ci fib]
+1.6 -9.8 42 +1 +1 прохладно 1032.2 1010.5
21 17.04 Ю 1 10 км 8/0
[Ci fib]
+0.3 -10.7 43 -1 -1 прохладно 1032.0 1010.2
00 18.04 ЮЗ 2 10 км 9/0
[Ac trans Ci fib]
+1.8 -13.5 31 -0 -0 по сезону 1030.9 1009.2
03 18.04 Ю 1 10 км 9/0
[Ac trans]
+1.6 -13.0 33 +1 +1 по сезону 1029.8 1008.0 -0.2
06 18.04 ЮЗ 1 10 км 8/0
[Ac trans]
+5.8 -10.3 30 +6 +9 по сезону 1028.2 1006.9
09 18.04 З 1 10 км 9/4 600 м
[Sc Ac trans]
+9.6 -11.4 21 +10 +14 тепло 1027.3 1006.3
12 18.04 СЗ 1 10 км 9/5 600 м
[Sc Ac trans]
+9.8 -9.3 25 +10 +13 по сезону 1027.5 1006.5
15 18.04 СВ 2 10 км 9/4 600 м
[Sc Ac trans]
+8.3 -6.5 34 +7 +7 по сезону 1027.7 1006.6 +10.3
18 18.04 С 2 10 км 9/4 600 м
[Sc Ac trans]
+3.4 -7.1 46 +1 +1 прохладно 1029.4 1007.9
21 18.04 СВ 1 10 км 9/4 600 м
[Sc Ac trans]
+0.4 -5.6 64 -1 -1 прохладно 1030.2 1008.4
00 19.04 штиль 0 10 км 9/4 600 м
[Sc Ac trans]
+0.6 -4.9 67 -0 -0 по сезону 1030.7 1009.0
03 19.04 СВ 1 10 км 9/0
[Ac trans]
+0.5 -4.7 68 -1 -1 прохладно 1031.2 1009.3 -0.2
06 19.04 СВ 2 10 км ясно +6.8 -5.6 41 +5 +12 по сезону 1031.4 1010.1
09 19.04 СВ 1 10 км 4/4 600 м
[Cu hum]
+10.5 -10.0 23 +11 +19 тепло 1030.6 1009.6
12 19.04 С 3 10 км 4/4 600 м
[Cu hum]
+11.7 -8.7 23 +11 +15 по сезону 1029.2 1008.3
15 19.04 СЗ 3 10 км ясно +10.7 -9.0 24 +9 +10 по сезону 1027.8 1006.8 +11.7
18 19.04 СЗ 1 10 км 3/0
[Ci fib]
+3.9 -6.7 46 +3 +3 по сезону 1028.2 1006.8
21 19.04 штиль 0 10 км 3/0
[Ci fib]
+1.5 -6.5 55 +1 +1 по сезону 1027.5 1005.9
00 20.04 штиль 0 10 км 3/0
[Ci fib]
-0.5 -5.9 67 -1 -1 по сезону 1026.8 1005.1
03 20.04 штиль 0 10 км 8/0
[Ci fib]
+0.3 -5.5 65 -0 0 прохладно 1025.9 1004.2 -1.8
06 20.04 З 3 10 км 8/0
[Ac trans Ci fib]
+9.0 -7.2 31 +7 +11 по сезону 1025.1 1004.1
09 20.04 ЮЗ 2 10 км 8/0
[Ac trans Ci fib]
+12.0 -7.1 26 +12 +20 тепло 1024.4 1003.6
12 20.04 Ю 2 10 км 9/0
[Ac trans Ci fib]
+14.3 -7.7 21 +14 +20 тепло 1023.9 1003.2
15 20.04 СЗ 2 10 км 8/3 600 м
[Sc Ci fib]
+13.4 -8.3 21 +13 +14 тепло 1023.8 1003.1 +14.5
18 20.04 штиль 0 10 км 9/4 600 м
[Sc Ci fib]
+6.2 -6.8 39 +6 +6 по сезону 1025.3 1004.1
21 20.04 штиль 0 10 км 8/3 600 м
[Sc Ci fib]
+3.2 -6.1 50 +3 +3 по сезону 1026.3 1004.8
00 21.04 штиль 0 10 км 8/3 600 м
[Sc Ci fib]
+1.0 -5.7 61 0 0 по сезону 1026.8 1005.1
03 21.04 штиль 0 10 км 6/0
[Ci fib]
+0.8 -5.0 65 0 +1 прохладно 1027.7 1005.9 -0.3
06 21.04 СВ 1 10 км 4/0
[Ci fib]
+12.0 -5.5 29 +13 +20 тепло 1027.8 1006.9
09 21.04 С 1 10 км 4/0
[Ci fib]
+15.7 -8.1 19 +17 +29 опасность
простуды
1027.5 1006.9
12 21.04 СВ 1 10 км 6/3 600 м
[Cu hum Ci fib]
+16.9 -8.5 17 +18 +24 тепло 1026.6 1006.1
15 21.04 С 2 10 км 8/3 600 м
[Cu hum Ci fib]
+15.9 -8.4 18 +16 +17 тепло 1026.1 1005.5 +17.2
18 21.04 С 1 10 км 6/0
[Ci fib]
+7.5 -5.9 38 +7 +7 по сезону 1027.5 1006.3
21 21.04 СЗ 1 10 км 6/0
[Ci fib]
+5.1 -4.7 49 +5 +5 по сезону 1028.2 1006.8
00 22.04 СЗ 1 10 км 8/0
[Ac trans]
+5.6 -3.6 52 +5 +5 по сезону 1028.8 1007.4
03 22.04 штиль 0 10 км 9/0
[Ac trans]
+5.8 -3.6 51 +5 +6 по сезону 1029.0 1007.7 +4.2
06 22.04 СВ 1 10 км 8/0
[Ac und]
+12.5 -1.5 38 +13 +16 тепло 1029.3 1008.5
09 22.04 СЗ 4 10 км 9/6 600 м
[Sc Ac und]
+15.0 -2.8 29 +14 +16 тепло 1028.7 1008.1
12 22.04 С 4 10 км 6/6 600 м
[Sc]
+18.0 -4.2 22 +18 +20 тепло 1026.8 1006.4
15 22.04 СЗ 3 10 км 3/0
[Ac trans]
+17.2 -4.5 22 +17 +18 тепло 1025.6 1005.2 +18.2
18 22.04 СЗ 1 10 км ясно +10.0 -3.4 39 +10 +10 тепло 1026.2 1005.2
21 22.04 З 2 10 км ясно +8.1 -2.3 48 +7 +7 тепло 1026.4 1005.3
00 23.04 З 2 10 км ясно +5.6 -2.8 55 +4 +4 по сезону 1026.6 1005.3
03 23.04 СЗ 2 10 км 8/0
[Ac trans Ci fib]
+7.3 -1.3 54 +6 +6 по сезону 1026.8 1005.6 +5.4
06 23.04 З 2 10 км 9/5 600 м
[Sc Ac trans]
+12.3 -0.3 42 +12 +13 тепло 1026.3 1005.5
09 23.04 З 6-12
{12}
10 км 9/5 600 м
[Sc Ac trans]
+16.9 -1.7 28 +16 +17 тепло 1024.7 1004.2
12 23.04 С 7-10
{13}
10 км 9/4 600 м
[Sc Ac trans]
+18.2 -2.3 25 +17 +18 тепло 1024.3 1003.9
15 23.04 С 5
{11}
10 км 8/0
[Ac trans Ci fib]
+17.1 -5.3 21 +17 +17 тепло 1024.0 1003.5 +18.5
18 23.04 С 3 10 км 8/0
[Ac trans Ci fib]
+11.4 -5.6 30 +10 +10 тепло 1025.1 1004.3
21 23.04 С 1 10 км 8/0
[Ac trans Ci fib]
+8.1 -3.4 44 +8 +8 тепло 1025.9 1004.8
00 24.04 СЗ 2 10 км 8/0
[Ac trans Ci fib]
+6.3 -2.9 52 +5 +5 по сезону 1026.6 1005.4
03 24.04 З 2 10 км 4/0
[Ci fib]
+8.8 -0.4 52 +7 +8 по сезону 1026.6 1005.5 +4.4
06 24.04 СЗ 3 10 км 3/0
[Ci fib]
+16.8 +0.2 32 +17 +22 тепло 1026.0 1005.6
09 24.04 СЗ 4 10 км 3/0
[Ci fib]
+21.1 -2.6 20 +20 +28 тепло 1025.0 1004.9

 

Местоположение метеостанции Владимир (Владимирская область, Россия): широта 56.12 долгота 40.35 высота над уровнем моря 172 м.

В архиве по умолчанию представлена погода в Владимире за последнюю неделю. Архивные данные за месяц целиком и за предыдущие месяцы, начиная с января 2011 года, Вы можете получить, выбрав интересующий диапазон дат из раскрывающегося списка и нажав кнопку "Ввод!".


*Определитесь, кто Вы:
робот инопланетянин человек

Внимание! Время в таблицах - всемирное. Для получения местного времени необходимо прибавить поправку, которая равна 3 ч.

Смотрите также архив погоды в соседних городах и на ближайших метеорологических станциях:

Погода в Суздале (Владимирская область, Россия) (34 км)
Погода в Юрьев-Польском (Владимирская область, Россия) (58 км)
Погода в Петушках (Владимирская область, Россия) (59 км)
Погода в Гусь-Хрустальный (Владимирская область, Россия) (61 км)
Погода в Черустях (Московская область, Россия) (67 км)
Погода в Коврове (Владимирская область, Россия) (67 км)
Погода в Тейково (Ивановская область, Россия) (82 км)
Погода в Иванове (Ивановская область, Россия) (100 км)
Погода в Александрове (Владимирская область, Россия) (104 км)
Погода в Шуе (Ивановская область, Россия) (104 км)

Пояснения к столбцам:

Ветер - указаны скорость ветра в м/с - средняя за 10 мин, порывы в срок и между сроками (в фигурных скобках) и направление, откуда дует ветер: С - северный, СВ - северо-восточный, В - восточный, ЮВ - юго-восточный, Ю - южный, ЮЗ - юго-западный, З - западный, СЗ - северо-западный.
Видимость - горизонтальная дальность видимости в метрах или километрах. При видимости от 1 до 10 км при отсутствии осадков обычно наблюдается дымка, при ухудшении видимости до 1 км и менее - туман. В сухую погоду видимость может ухудшаться дымом, пылью или мглою.
Явления - указаны атмосферные явления, наблюдавшиеся в срок или в последний час перед сроком; фигурными скобками обозначены явления, наблюдавшиеся между сроками (за 1-3 часа до срока); квадратными скобками обозначены град или гололедные отложения с указанием их диаметра в мм.
Облачность - указаны через наклонную черту общая и нижняя облачность в баллах и высота нижней границы облаков в метрах; квадратными скобками обозначены формы облаков: Ci - перистые, Cs - перисто-слоистые, Cc - перисто-кучевые, Ac - высококучевые, As - высокослоистые, Sc - слоисто-кучевые, Ns - слоисто-дождевые, Cu - кучевые, Cb - кучево-дождевые. Подробнее классификацию облаков см. в Атласе облаков (PDF).
T - Температура воздуха - температура, измеренная на высоте 2 м над землей.
Td - Температура точки росы - температура, при понижении до которой содержащийся в воздухе водяной пар достигнет насыщения.
f - Относительная влажность воздуха - влажноcть воздуха, измеренная на высоте 2 м над землей.
Te - Эффективная температура - температура, которую ощущает одетый по сезону человек в тени. Характеристика душности погоды. При расчете учитывается влияние влажности воздуха и скорости ветра на теплоощущения человека.
Tes - Эффективная температура на солнце - температура, которую ощущает человек, с поправкой на солнечный нагрев. Характеристика знойности погоды. Зависит от высоты солнца над горизонтом, облачности и скорости ветра. Ночью, в пасмурную погоду, а также при ветре 12 м/с и более поправка равна нулю.
P - Атмосферное давление - приведенное к уровню моря атмосферное давление.
Po - Атмосферное давление - измеренное на уровне метеостанции атмосферное давление.
Tmin - Минимальная температура - минимум температуры воздуха на высоте 2 м над землей.
Tmax - Максимальная температура - максимум температуры воздуха на высоте 2 м над землей.
R - Количество осадков - Количество выпавших осадков за период времени, мм. При наведении курсора мыши на число - период времени, за который выпало указанное количество осадков.
R24 - Количество осадков - Количество выпавших осадков за 24 часа, мм.
S - Снежный покров - Высота снежного покрова, см. При наведении курсора мыши на число - состояние снежного покрова и степень покрытия местности в баллах.